When you browse on this site, cookies collect data to enhance your experience and personalize the content and advertising you see.
Visit our Privacy Policy to learn more. By continuing to use the site, you agree to this use of cookies and data.
  • en France
  • Liste des pays
  • À 7 jours
  • Température de l'eau
  • Carte météo
  • Widgets météo
  • user-avatar
    Se connecter

    Météo par heure à Bunia

    Ce jour, 1 Juin, Lundi

    Heure Température Précipitation Vent Pression Humidité
    00:00 +19°C° 0 mm 2 m/s 656 mmHg 82%
    01:00 +19°C° 0 mm 2 m/s 656 mmHg 84%
    02:00 +20°C° 0 mm 1 m/s 656 mmHg 86%
    03:00 +19°C° 0 mm 1 m/s 656 mmHg 86%
    04:00 +19°C° 0 mm 1 m/s 656 mmHg 85%
    05:00 +19°C° 0 mm 1 m/s 656 mmHg 84%
    06:00 +20°C° 0 mm 1 m/s 656 mmHg 78%
    07:00 +22°C° 0 mm 1 m/s 657 mmHg 71%
    08:00 +24°C° 0 mm 1 m/s 658 mmHg 62%
    09:00 +25°C° 0 mm 2 m/s 658 mmHg 56%
    10:00 +27°C° 0 mm 2 m/s 658 mmHg 51%
    11:00 +28°C° 0 mm 2 m/s 658 mmHg 45%
    12:00 +29°C° 0 mm 2 m/s 657 mmHg 44%
    13:00 +29°C° 0 mm 2 m/s 657 mmHg 43%
    14:00 +30°C° 0 mm 2 m/s 657 mmHg 41%
    15:00 +29°C° 0 mm 2 m/s 656 mmHg 46%
    16:00 +28°C° 0 mm 2 m/s 656 mmHg 52%
    17:00 +27°C° 0 mm 1 m/s 656 mmHg 57%
    18:00 +25°C° 0 mm 1 m/s 656 mmHg 61%
    19:00 +23°C° 0 mm 1 m/s 656 mmHg 64%
    20:00 +21°C° 0 mm 1 m/s 656 mmHg 68%
    21:00 +21°C° 0 mm 1 m/s 656 mmHg 69%
    22:00 +20°C° 0 mm 2 m/s 656 mmHg 70%
    23:00 +20°C° 0 mm 2 m/s 655 mmHg 71%

    Demain, 2 Juin, Mardi

    Heure Température Précipitation Vent Pression Humidité
    00:00 +20°C° 0 mm 1 m/s 655 mmHg 76%
    01:00 +20°C° 0 mm 1 m/s 655 mmHg 80%
    02:00 +20°C° 0 mm 1 m/s 655 mmHg 85%
    03:00 +19°C° 0 mm 1 m/s 655 mmHg 85%
    04:00 +19°C° 0 mm 1 m/s 655 mmHg 84%
    05:00 +19°C° 0 mm 1 m/s 655 mmHg 83%
    06:00 +21°C° 0 mm 1 m/s 656 mmHg 76%
    07:00 +22°C° 0 mm 1 m/s 657 mmHg 69%
    08:00 +24°C° 0 mm 1 m/s 658 mmHg 63%
    09:00 +25°C° 0 mm 2 m/s 657 mmHg 57%
    10:00 +27°C° 0 mm 2 m/s 657 mmHg 52%
    11:00 +28°C° 0 mm 3 m/s 657 mmHg 47%
    12:00 +29°C° 0 mm 2 m/s 657 mmHg 45%
    13:00 +29°C° 0 mm 2 m/s 656 mmHg 44%
    14:00 +30°C° 0 mm 2 m/s 656 mmHg 42%
    15:00 +29°C° 0 mm 2 m/s 656 mmHg 47%
    16:00 +28°C° 0 mm 2 m/s 655 mmHg 53%
    17:00 +27°C° 0 mm 1 m/s 655 mmHg 58%
    18:00 +25°C° 0 mm 1 m/s 655 mmHg 62%
    19:00 +24°C° 0 mm 1 m/s 655 mmHg 66%
    20:00 +22°C° 0 mm 1 m/s 655 mmHg 70%
    21:00 +21°C° 0 mm 2 m/s 655 mmHg 70%
    22:00 +20°C° 0 mm 2 m/s 655 mmHg 71%
    23:00 +20°C° 0 mm 2 m/s 655 mmHg 71%

    Après-demain, 3 Juin, Mercredi

    Heure Température Précipitation Vent Pression Humidité
    00:00 +20°C° 0 mm 2 m/s 655 mmHg 74%
    01:00 +21°C° 0 mm 1 m/s 655 mmHg 77%
    02:00 +20°C° 0 mm 1 m/s 654 mmHg 80%
    03:00 +20°C° 0 mm 1 m/s 654 mmHg 80%
    04:00 +20°C° 0 mm 1 m/s 654 mmHg 80%
    05:00 +20°C° 0 mm 1 m/s 654 mmHg 79%
    06:00 +22°C° 0 mm 1 m/s 655 mmHg 74%
    07:00 +23°C° 0 mm 1 m/s 656 mmHg 69%
    08:00 +25°C° 0 mm 1 m/s 657 mmHg 64%
    09:00 +26°C° 0 mm 1 m/s 657 mmHg 60%
    10:00 +27°C° 0 mm 2 m/s 657 mmHg 56%
    11:00 +28°C° 0 mm 2 m/s 657 mmHg 52%
    12:00 +29°C° 0 mm 2 m/s 656 mmHg 50%
    13:00 +29°C° 0 mm 2 m/s 656 mmHg 48%
    14:00 +30°C° 0 mm 2 m/s 655 mmHg 46%
    15:00 +29°C° 0.1 mm 2 m/s 655 mmHg 52%
    16:00 +28°C° 0.1 mm 1 m/s 655 mmHg 58%
    17:00 +26°C° 0.1 mm 1 m/s 654 mmHg 65%
    18:00 +25°C° 0.4 mm 1 m/s 655 mmHg 72%
    19:00 +23°C° 0.4 mm 1 m/s 655 mmHg 79%
    20:00 +21°C° 0.4 mm 1 m/s 655 mmHg 85%
    21:00 +21°C° 0.2 mm 1 m/s 655 mmHg 86%
    22:00 +20°C° 0.2 mm 1 m/s 655 mmHg 87%
    23:00 +20°C° 0.2 mm 1 m/s 655 mmHg 88%

    4 Juin, Jeudi

    Heure Température Précipitation Vent Pression Humidité
    00:00 +20°C° 0.6 mm 1 m/s 655 mmHg 90%
    01:00 +20°C° 0.6 mm 1 m/s 654 mmHg 92%
    02:00 +20°C° 0.6 mm 1 m/s 654 mmHg 94%
    03:00 +20°C° 0.1 mm 1 m/s 654 mmHg 93%
    04:00 +20°C° 0.1 mm 1 m/s 654 mmHg 92%
    05:00 +20°C° 0.1 mm 1 m/s 655 mmHg 92%
    06:00 +21°C° 0 mm 1 m/s 655 mmHg 90%
    07:00 +21°C° 0 mm 1 m/s 656 mmHg 89%
    08:00 +20°C° 0 mm 0 m/s 657 mmHg 88%
    09:00 +21°C° 0.3 mm 0 m/s 657 mmHg 85%
    10:00 +23°C° 0.3 mm 1 m/s 656 mmHg 82%
    11:00 +24°C° 0.3 mm 1 m/s 656 mmHg 80%
    12:00 +25°C° 0.4 mm 1 m/s 656 mmHg 73%
    13:00 +27°C° 0.4 mm 1 m/s 656 mmHg 65%
    14:00 +28°C° 0.4 mm 1 m/s 656 mmHg 58%
    15:00 +27°C° 0.6 mm 1 m/s 656 mmHg 64%
    16:00 +26°C° 0.6 mm 1 m/s 655 mmHg 71%
    17:00 +25°C° 0.6 mm 1 m/s 655 mmHg 77%
    18:00 +24°C° 1.2 mm 2 m/s 655 mmHg 82%
    19:00 +21°C° 1.2 mm 2 m/s 655 mmHg 88%
    20:00 +20°C° 1.2 mm 2 m/s 656 mmHg 93%
    21:00 +19°C° 1 mm 2 m/s 656 mmHg 94%
    22:00 +19°C° 1 mm 2 m/s 656 mmHg 94%
    23:00 +19°C° 1 mm 2 m/s 656 mmHg 95%

    5 Juin, Vendredi

    Heure Température Précipitation Vent Pression Humidité
    00:00 +19°C° 0 mm 2 m/s 656 mmHg 94%
    01:00 +19°C° 0 mm 1 m/s 655 mmHg 93%
    02:00 +19°C° 0 mm 1 m/s 655 mmHg 92%
    03:00 +19°C° 0 mm 1 m/s 655 mmHg 91%
    04:00 +19°C° 0 mm 1 m/s 655 mmHg 90%
    05:00 +17°C° 0 mm 0 m/s 655 mmHg 89%
    06:00 +21°C° 0 mm 1 m/s 656 mmHg 86%
    07:00 +22°C° 0 mm 1 m/s 657 mmHg 82%
    08:00 +23°C° 0 mm 1 m/s 658 mmHg 78%
    09:00 +24°C° 0.5 mm 1 m/s 658 mmHg 75%
    10:00 +26°C° 0.5 mm 1 m/s 658 mmHg 71%
    11:00 +27°C° 0.5 mm 2 m/s 658 mmHg 67%
    12:00 +27°C° 0.7 mm 2 m/s 657 mmHg 67%
    13:00 +27°C° 0.7 mm 1 m/s 656 mmHg 67%
    14:00 +27°C° 0.7 mm 1 m/s 656 mmHg 67%
    15:00 +26°C° 1.2 mm 1 m/s 656 mmHg 74%
    16:00 +25°C° 1.2 mm 1 m/s 655 mmHg 81%
    17:00 +24°C° 1.2 mm 1 m/s 655 mmHg 87%
    18:00 +22°C° 2.5 mm 1 m/s 655 mmHg 90%
    19:00 +21°C° 2.5 mm 1 m/s 656 mmHg 93%
    20:00 +20°C° 2.5 mm 1 m/s 656 mmHg 95%
    21:00 +20°C° 0.8 mm 1 m/s 656 mmHg 96%
    22:00 +20°C° 0.8 mm 1 m/s 657 mmHg 96%
    23:00 +20°C° 0.8 mm 1 m/s 657 mmHg 96%

    6 Juin, Samedi

    Heure Température Précipitation Vent Pression Humidité
    00:00 +20°C° 0.2 mm 1 m/s 656 mmHg 96%
    01:00 +20°C° 0.2 mm 1 m/s 656 mmHg 95%
    02:00 +20°C° 0.2 mm 1 m/s 655 mmHg 94%
    03:00 +20°C° 0 mm 1 m/s 655 mmHg 94%
    04:00 +20°C° 0 mm 1 m/s 655 mmHg 93%
    05:00 +20°C° 0 mm 1 m/s 655 mmHg 92%
    06:00 +20°C° 0.1 mm 1 m/s 656 mmHg 91%
    07:00 +20°C° 0.1 mm 1 m/s 657 mmHg 89%
    08:00 +21°C° 0.1 mm 1 m/s 657 mmHg 88%
    09:00 +21°C° 0.1 mm 1 m/s 657 mmHg 86%
    10:00 +20°C° 0.1 mm 0 m/s 657 mmHg 83%
    11:00 +21°C° 0.1 mm 0 m/s 657 mmHg 81%
    12:00 +24°C° 0.3 mm 1 m/s 657 mmHg 74%
    13:00 +26°C° 0.3 mm 1 m/s 656 mmHg 68%
    14:00 +27°C° 0.3 mm 1 m/s 656 mmHg 61%
    15:00 +27°C° 0.2 mm 1 m/s 656 mmHg 65%
    16:00 +26°C° 0.2 mm 1 m/s 656 mmHg 69%
    17:00 +25°C° 0.2 mm 1 m/s 655 mmHg 74%
    18:00 +24°C° 0.5 mm 1 m/s 656 mmHg 77%
    19:00 +23°C° 0.5 mm 1 m/s 656 mmHg 80%
    20:00 +21°C° 0.5 mm 1 m/s 656 mmHg 83%
    21:00 +18°C° 0.3 mm 0 m/s 656 mmHg 86%
    22:00 +18°C° 0.3 mm 0 m/s 655 mmHg 88%
    23:00 +17°C° 0.3 mm 0 m/s 655 mmHg 90%
    Voir plus